Air Resources Laboratory banner image
Air Resources Laboratory web site National Oceanic and Atmospheric Administration (NOAA)

nv roundup


Office: REV

ASUS45 KREV 171310
RWRNV
NEVADA REGIONAL WEATHER ROUNDUP
NATIONAL WEATHER SERVICE RENO NV
600 AM PDT TUE JUL 17 2018

NOTE: "FAIR" INDICATES FEW OR NO CLOUDS BELOW 12,000 FEET WITH NO
SIGNIFICANT WEATHER AND/OR OBSTRUCTIONS TO VISIBILITY.

NVZ001-003-004-171400-
WESTERN NEVADA

CITY           SKY/WX    TMP DP  RH WIND       PRES   REMARKS
RENO           CLEAR     69  42  37 W3        30.20R
CARSON CITY    FAIR      63  41  45 CALM      30.23R
MINDEN         FAIR      52  41  66 CALM      30.24R
SLIDE MTN        N/A     57  43  58 MISG        N/A
FALLON         CLEAR     63  44  50 CALM      30.13R
LOVELOCK       CLEAR     64  37  36 N5        30.13R
$$

NVZ002-CAZ072-073-171400-
NORTHERN AND CENTRAL SIERRA

CITY           SKY/WX    TMP DP  RH WIND       PRES   REMARKS
S. LAKE TAHOE  CLEAR     48  44  86 S3        30.32S
TRUCKEE        CLEAR     45  39  81 CALM      30.33R
SQUAW VLY 8000   N/A     59  37  44 W1          N/A
BLUE CANYON    CLEAR     72  35  25 N3        30.25S
MAMMOTH LAKES  FAIR      58  38  47 W8        30.38S
BRIDGEPORT     FAIR      47  39  74 CALM      30.35S
$$

NVZ030-031-036-171400-
NORTHERN NEVADA

CITY           SKY/WX    TMP DP  RH WIND       PRES   REMARKS
ELKO           CLEAR     59  41  51 NW5       30.22R
WINNEMUCCA     CLEAR     54  38  54 E5        30.18R
WENDOVER       CLEAR     72  56  57 W7        30.14R
$$

NVZ035-037-171400-
CENTRAL NEVADA

CITY           SKY/WX    TMP DP  RH WIND       PRES   REMARKS
ELY            CLEAR     54  44  69 S9        30.29R
EUREKA           N/A     58  46  64 S6        30.26R
$$

NVZ013-014-171400-
SOUTH CENTRAL NEVADA

CITY           SKY/WX    TMP DP  RH WIND       PRES   REMARKS
TONOPAH        CLEAR     70  49  47 N6        30.21R
$$

NVZ017-020-022-171400-
SOUTHERN NEVADA

CITY           SKY/WX    TMP DP  RH WIND       PRES   REMARKS
LAS VEGAS      PTCLDY    91  55  29 CALM      29.92R
N. LAS VEGAS   CLEAR     88  58  36 NE5       29.92R
NELLIS AFB     CLEAR     91  59  34 NE10      29.90R
HENDERSON      CLEAR     90  56  31 S13       29.96R
MERCURY        NOT AVBL
$$




Office: LKN ASUS65 KLKN 171301 RTPLKN Regional Temperature And Precipitation Table...Early Morning National Weather Service Elko NV 601 AM PDT Tue Jul 17 2018 ***Automated Airport Stations*** Values represent lows over the last 12 hours... Highs over the last 24 hours and precipitation over the last 24 hours...ending at 4 AM PST/5 AM PDT today. .BR LKN 0717 P DH04/TAIRZX/DH04/TAIRZP/PPDRZZ/SFDRZZ/SDIRZZ : :ID Station Elev / Max / Min / Pcpn / :.................................................................... : EKO : Elko ASOS 5074 : 96 / 56 / 0.00 / ELY : Ely ASOS 6262 : 91 / 53 / T / P68 : Eureka ASOS 5936 : 93 / 58 / 0.00 / TPH : Tonopah ASOS 5395 : 95 / 71 / 0.00 / ENV : Wendover AWOS 4236 : 99 / 70 / 0.17 / WMC : Winnemucca ASOS 4314 : 98 / 55 / 0.00 / .END ***Manual synoptic reporting stations in north and central Nevada*** Values reflect the previous 24 hours ending at 4 AM PST/5 AM PDT *Snow stations may only report during periods of snowfall* .BR LKN 0717 P DH04/TAIRZX/TAIRZN/PPDRZZ/SFDRZZ/SDIRZZ : Snow Snow :ID Station Elev Max / Min / Pcpn / Fall / Dpth :.................................................................... : TLKN2 : Elko NWS Office 5235 : 96 / 59 / 0.00 / 0.0 / 0 TELN2 : Ely Snow 6487 : M / M / 0.00 / 0.0 / 0 TWIN2 : Winnemucca Snow 4355 : M / M / 0.00 / 0.0 / 0 .END ***Cooperative stations in north and central Nevada*** Values reflect the previous 24 hours Report time as indicated .BR LKN 0717 P DH04/TAIRZX/TAIRZN/PPDRZZ/SFDRZZ/SDIRZZ : Snow Snow :ID Station Elev Time / Max / Min / Pcpn / Fall / Dpth :.................................................................... : MOMN2 : Moorman Ranch 6539 5 AM: 90 / 48 / 0.07 / 0.0 / 0 .END M = Missing data T = Trace amounts ASOS = Automated Surface Observing System AWOS = Automated Weather Observation System NWS = National Weather Service DCP = Data Collection Platform These data are preliminary and have not undergone final quality control (QC) by NCEI. Therefore, these data are subject to revision. Final and certified data can be accessed at the National Centers For Environmental Information (NCEI) - www.ncei.noaa.gov $$